GW5880 Weather Reports


Display with metric or nautical units.
time (UTC)temp
F
wind
direction
speed
MPH
gust
MPH
rain 1hr
in
rain 24hr
in
rain mn
in
humidity
%
barometer
mb
20260504184823 68 283 10.0 14.0 0.00 0.00 0.00 34 1006.9
20260504184319 67 269 8.0 18.0 0.00 0.00 0.00 37 1006.7
20260504183815 68 255 11.0 22.0 0.00 0.00 0.00 36 1006.9
20260504183312 68 227 17.0 19.0 0.00 0.00 0.00 35 1006.9
20260504182810 69 225 11.0 15.0 0.00 0.00 0.00 36 1007.0
20260504182308 67 232 6.0 10.0 0.00 0.00 0.00 39 1007.0
20260504181805 66 257 17.0 23.0 0.00 0.00 0.00 40 1007.0
20260504181302 66 225 11.0 15.0 0.00 0.00 0.00 40 1007.0
20260504180801 66 245 13.0 18.0 0.00 0.00 0.00 39 1006.9
20260504180259 67 236 17.0 19.0 0.00 0.00 0.00 39 1006.9
20260504175756 68 217 12.0 19.0 0.00 0.00 0.00 41 1007.2
20260504175253 66 244 8.0 11.0 0.00 0.00 0.00 42 1007.3
20260504174751 67 237 14.0 17.0 0.00 0.00 0.00 40 1007.2
20260504174249 66 134 13.0 18.0 0.00 0.00 0.00 42 1007.1
20260504173745 67 228 15.0 22.0 0.00 0.00 0.00 39 1007.1
20260504173242 66 216 13.0 14.0 0.00 0.00 0.00 42 1007.1
20260504172739 66 218 10.0 21.0 0.00 0.00 0.00 42 1007.1
20260504172235 66 209 9.0 17.0 0.00 0.00 0.00 40 1007.3
20260504171731 65 233 10.0 13.0 0.00 0.00 0.00 43 1007.2
20260504171228 65 209 12.0 17.0 0.00 0.00 0.00 43 1007.4
20260504170725 65 238 14.0 18.0 0.00 0.00 0.00 43 1007.4
20260504170223 65 227 11.0 22.0 0.00 0.00 0.00 43 1007.4
20260504160141 61 227 17.0 19.0 0.00 0.00 0.00 48 1008.3
20260504151108 59 239 14.0 16.0 0.00 0.00 0.00 46 1008.4
20260504150606 59 205 10.0 13.0 0.00 0.00 0.00 49 1008.5
20260504150103 58 223 13.0 16.0 0.00 0.00 0.00 49 1008.7
20260504141032 56 238 14.0 21.0 0.00 0.00 0.00 49 1008.8
20260504140528 55 239 9.0 16.0 0.00 0.00 0.00 50 1008.7
20260504130453 52 251 10.0 16.0 0.00 0.00 0.00 52 1009.3
20260504110340 46 158 5.0 8.0 0.00 0.00 0.00 57 1009.6
20260504100257 47 204 16.0 21.0 0.00 0.00 0.00 54 1009.3
20260504081650 47 227 7.0 9.0 0.00 0.00 0.00 55 1009.9
20260504081147 47 250 7.0 10.0 0.00 0.00 0.00 55 1009.6
20260504080643 47 228 8.0 11.0 0.00 0.00 0.00 54 1009.9
20260504080140 47 241 7.0 10.0 0.00 0.00 0.00 55 1009.9
20260504070108 46 238 5.0 8.0 0.00 0.00 0.00 57 1010.0
20260504050456 49 198 9.0 11.0 0.00 0.00 0.00 49 1010.4
20260504045953 49 222 5.0 11.0 0.00 0.00 0.00 50 1010.4
20260504045449 49 206 10.0 13.0 0.00 0.00 0.00 49 1010.4
20260504044945 49 216 10.0 11.0 0.00 0.00 0.00 49 1010.4
20260504044443 49 230 10.0 13.0 0.00 0.00 0.00 49 1010.4
20260504043940 49 227 7.0 11.0 0.00 0.00 0.00 49 1010.5
20260504043437 50 194 4.0 9.0 0.00 0.00 0.00 48 1010.5
20260504042934 50 221 6.0 10.0 0.00 0.00 0.00 48 1010.4
20260504042431 50 207 7.0 10.0 0.00 0.00 0.00 48 1010.6
20260504041927 50 222 7.0 10.0 0.00 0.00 0.00 48 1010.5
20260504041424 50 201 7.0 9.0 0.00 0.00 0.00 48 1010.5
20260504040920 50 214 6.0 9.0 0.00 0.00 0.00 48 1010.6
20260504040418 50 213 6.0 8.0 0.00 0.00 0.00 48 1010.6
20260504035913 50 207 7.0 8.0 0.00 0.00 0.00 48 1010.4
20260504035411 50 218 4.0 7.0 0.00 0.00 0.00 47 1010.4
20260504034908 50 218 4.0 7.0 0.00 0.00 0.00 48 1010.6
20260504034405 50 226 7.0 9.0 0.00 0.00 0.00 46 1010.6
20260504033902 50 222 6.0 8.0 0.00 0.00 0.00 46 1010.5
20260504033400 51 204 5.0 7.0 0.00 0.00 0.00 46 1010.6
20260504032856 51 218 7.0 9.0 0.00 0.00 0.00 44 1010.7
20260504032353 51 212 6.0 8.0 0.00 0.00 0.00 44 1010.5
20260504031850 51 201 5.0 7.0 0.00 0.00 0.00 43 1010.5
20260504031347 51 202 6.0 7.0 0.00 0.00 0.00 43 1010.7
20260504030843 51 200 6.0 7.0 0.00 0.00 0.00 44 1010.8
20260504030341 51 199 4.0 7.0 0.00 0.00 0.00 45 1010.8
20260504025837 51 196 4.0 4.0 0.00 0.00 0.00 44 1010.7
20260504025334 50 208 4.0 4.0 0.00 0.00 0.00 45 1010.8
20260504024831 51 221 4.0 6.0 0.00 0.00 0.00 45 1010.9
20260504024327 51 226 4.0 7.0 0.00 0.00 0.00 44 1011.1
20260504023824 51 231 4.0 8.0 0.00 0.00 0.00 44 1011.2
20260504023321 51 225 3.0 7.0 0.00 0.00 0.00 43 1011.1
20260504022816 51 248 2.0 4.0 0.00 0.00 0.00 43 1011.0
20260504022314 51 220 4.0 4.0 0.00 0.00 0.00 43 1010.9
20260504021810 51 306 3.0 6.0 0.00 0.00 0.00 43 1010.9
20260504021308 51 256 1.0 3.0 0.00 0.00 0.00 44 1010.8
20260504020804 51 264 6.0 8.0 0.00 0.00 0.00 42 1010.8
20260504020301 51 283 2.0 4.0 0.00 0.00 0.00 44 1010.9
20260504015757 52 244 1.0 4.0 0.00 0.00 0.00 44 1010.9
20260504015253 52 266 2.0 6.0 0.00 0.00 0.00 43 1010.8
20260504014749 52 246 8.0 10.0 0.00 0.00 0.00 42 1011.0
20260504014246 52 350 2.0 6.0 0.00 0.00 0.00 42 1010.8
20260504013744 52 321 6.0 11.0 0.00 0.00 0.00 41 1011.0
20260504013241 52 300 8.0 13.0 0.00 0.00 0.00 42 1010.9
20260504012737 52 337 4.0 6.0 0.00 0.00 0.00 43 1011.1
20260504012235 52 302 5.0 8.0 0.00 0.00 0.00 42 1010.8
20260504011732 52 290 6.0 9.0 0.00 0.00 0.00 42 1010.9
20260504011229 52 251 3.0 8.0 0.00 0.00 0.00 42 1010.9
20260504010725 53 291 6.0 10.0 0.00 0.00 0.00 42 1010.8
20260504010220 52 283 10.0 16.0 0.00 0.00 0.00 41 1010.8
20260504005717 53 310 9.0 11.0 0.00 0.00 0.00 40 1010.9
20260504005215 53 287 8.0 13.0 0.00 0.00 0.00 41 1010.9
20260504004712 53 274 6.0 8.0 0.00 0.00 0.00 41 1010.8
20260504004209 53 291 9.0 14.0 0.00 0.00 0.00 39 1010.7
20260504003706 53 301 11.0 19.0 0.00 0.00 0.00 38 1010.8
20260504003203 53 300 10.0 14.0 0.00 0.00 0.00 41 1010.7
20260504002659 53 316 6.0 16.0 0.00 0.00 0.00 41 1010.6
20260504002157 53 298 7.0 9.0 0.00 0.00 0.00 41 1010.6
20260504001655 53 306 9.0 10.0 0.00 0.00 0.00 42 1010.3
20260504001150 52 282 5.0 8.0 0.00 0.00 0.00 44 1010.3
20260504000647 52 274 3.0 7.0 0.00 0.00 0.00 43 1010.4
20260504000145 52 300 3.0 6.0 0.00 0.00 0.00 42 1010.4
20260503235643 52 282 5.0 7.0 0.00 0.00 0.00 43 1010.0
20260503235139 52 294 2.0 3.0 0.00 0.00 0.00 44 1010.0
20260503234638 52 263 2.0 4.0 0.00 0.00 0.00 43 1010.2
20260503234135 53 253 4.0 7.0 0.00 0.00 0.00 42 1010.2
20260503233632 52 246 2.0 2.0 0.00 0.00 0.00 42 1010.3
20260503233127 52 232 1.0 2.0 0.00 0.00 0.00 43 1010.2
20260503232625 53 267 2.0 7.0 0.00 0.00 0.00 43 1010.4
20260503232122 53 246 2.0 4.0 0.00 0.00 0.00 42 1010.1
20260503231620 53 306 7.0 9.0 0.00 0.00 0.00 42 1010.1
20260503231116 53 298 5.0 11.0 0.00 0.00 0.00 41 1010.3
20260503230613 53 317 10.0 15.0 0.00 0.00 0.00 41 1010.5
20260503230110 53 317 10.0 19.0 0.00 0.00 0.00 40 1010.2
20260503225608 53 305 14.0 19.0 0.00 0.00 0.00 40 1010.3
20260503225107 54 27 11.0 19.0 0.00 0.00 0.00 40 1010.2
20260503224605 54 285 10.0 19.0 0.00 0.00 0.00 39 1010.2
20260503224103 54 300 10.0 13.0 0.00 0.00 0.00 41 1009.9
20260503223601 54 325 5.0 11.0 0.00 0.00 0.00 40 1009.9
20260503223056 54 229 3.0 8.0 0.00 0.00 0.00 42 1009.9
20260503222554 54 271 7.0 9.0 0.00 0.00 0.00 42 1010.0
20260503222052 54 215 3.0 9.0 0.00 0.00 0.00 42 1009.9
20260503221550 54 338 6.0 9.0 0.00 0.00 0.00 42 1010.1
20260503221047 53 282 5.0 9.0 0.00 0.00 0.00 42 1010.1
20260503220543 53 311 11.0 16.0 0.00 0.00 0.00 40 1010.2
20260503220040 53 22 5.0 9.0 0.00 0.00 0.00 42 1010.1
20260503215537 53 294 6.0 10.0 0.00 0.00 0.00 42 1010.0
20260503215034 54 265 3.0 14.0 0.00 0.00 0.00 41 1010.1
20260503214532 54 263 9.0 11.0 0.00 0.00 0.00 40 1010.1
20260503214029 54 302 3.0 16.0 0.00 0.00 0.00 41 1010.1
20260503213527 53 255 5.0 11.0 0.00 0.00 0.00 42 1010.1
20260503213024 54 289 9.0 13.0 0.00 0.00 0.00 40 1010.1
20260503212521 54 289 4.0 14.0 0.00 0.00 0.00 41 1009.9
20260503212018 54 311 7.0 14.0 0.00 0.00 0.00 41 1009.9
20260503211515 54 292 6.0 14.0 0.00 0.00 0.00 41 1009.7
20260503211011 54 250 4.0 10.0 0.00 0.00 0.00 42 1010.0
20260503210508 55 312 8.0 18.0 0.00 0.00 0.00 39 1010.0
20260503210003 56 302 4.0 16.0 0.00 0.00 0.00 39 1009.9
20260503205500 55 262 12.0 21.0 0.00 0.00 0.00 39 1010.0
20260503204956 55 296 9.0 17.0 0.00 0.00 0.00 40 1010.2
20260503204454 54 233 3.0 9.0 0.00 0.00 0.00 42 1010.2
20260503203950 54 9 6.0 13.0 0.00 0.00 0.00 43 1010.4
20260503203448 53 275 8.0 13.0 0.00 0.00 0.00 41 1010.4
20260503202944 53 308 8.0 14.0 0.00 0.00 0.00 41 1010.3
20260503202443 53 269 9.0 11.0 0.00 0.00 0.00 40 1010.4
20260503201941 53 318 3.0 9.0 0.00 0.00 0.00 43 1010.3
20260503201438 53 296 4.0 7.0 0.00 0.00 0.00 41 1010.5
20260503200935 54 297 7.0 10.0 0.00 0.00 0.00 41 1010.6
20260503200431 55 211 11.0 21.0 0.00 0.00 0.00 38 1010.3
20260503195928 54 308 6.0 14.0 0.00 0.00 0.00 41 1010.7
20260503195426 54 292 8.0 15.0 0.00 0.00 0.00 42 1010.7
20260503194922 53 290 13.0 15.0 0.00 0.00 0.00 43 1010.8
20260503194419 54 8 5.0 11.0 0.00 0.00 0.00 41 1010.9
20260503193914 54 310 4.0 22.0 0.00 0.00 0.00 42 1011.2
20260503193410 53 303 10.0 13.0 0.00 0.00 0.00 44 1011.1
20260503192906 52 259 9.0 11.0 0.00 0.00 0.00 43 1011.3
20260503192402 51 306 6.0 15.0 0.00 0.00 0.00 45 1011.3
20260503191858 52 299 7.0 11.0 0.00 0.00 0.00 44 1011.4
20260503191355 53 292 10.0 14.0 0.00 0.00 0.00 42 1011.4
20260503190852 52 309 11.0 16.0 0.00 0.00 0.00 44 1011.3
20260503190349 52 299 10.0 11.0 0.00 0.00 0.00 45 1011.6
20260503185846 52 43 4.0 13.0 0.00 0.00 0.00 42 1011.5
20260503185343 54 284 7.0 15.0 0.00 0.00 0.00 42 1011.5